• In Uzbekistan
  • List of Countries
  • For 7 days
  • Water Temperature
  • Satellite Maps
  • Weather Map
  • Weather Widgets
  • user-avatar
    Login

    Hourly Weather Rozdollya

    Today, 18 December, Monday

    Time Temperature Precipitation Wind Pressure Humidity
    00:00 +8°C° 0.6 mm 6 mps 745 mmHg 85%
    01:00 +7°C° 0.6 mm 6 mps 744 mmHg 84%
    02:00 +7°C° 0 mm 6 mps 744 mmHg 80%
    03:00 +7°C° 0.8 mm 6 mps 744 mmHg 82%
    04:00 +5°C° 0.8 mm 6 mps 743 mmHg 83%
    05:00 +5°C° 0.8 mm 6 mps 743 mmHg 85%
    06:00 +5°C° 0.9 mm 6 mps 743 mmHg 86%
    07:00 +5°C° 0.9 mm 7 mps 742 mmHg 87%
    08:00 +6°C° 0 mm 8 mps 742 mmHg 87%
    09:00 +6°C° 0.4 mm 8 mps 742 mmHg 87%
    10:00 +7°C° 0.4 mm 8 mps 742 mmHg 87%
    11:00 +7°C° 0.4 mm 8 mps 742 mmHg 87%
    12:00 +7°C° 0 mm 8 mps 742 mmHg 85%
    13:00 +7°C° 0 mm 8 mps 742 mmHg 82%
    14:00 +6°C° 0 mm 9 mps 743 mmHg 76%
    15:00 +5°C° 0 mm 9 mps 743 mmHg 75%
    16:00 +4°C° 0 mm 8 mps 744 mmHg 73%
    17:00 +2°C° 0 mm 8 mps 745 mmHg 72%
    18:00 +1°C° 0 mm 8 mps 745 mmHg 72%
    19:00 +2°C° 0 mm 7 mps 746 mmHg 72%
    20:00 0°C° 0 mm 7 mps 746 mmHg 72%
    21:00 0°C° 0 mm 7 mps 747 mmHg 72%
    22:00 0°C° 0 mm 7 mps 747 mmHg 72%
    23:00 -1°C° 0 mm 7 mps 748 mmHg 72%

    Tomorrow, 19 December, Tuesday

    Time Temperature Precipitation Wind Pressure Humidity
    00:00 -1°C° 0 mm 6 mps 748 mmHg 72%
    01:00 -2°C° 0 mm 6 mps 748 mmHg 72%
    02:00 -2°C° 0 mm 6 mps 748 mmHg 72%
    03:00 -1°C° 0 mm 5 mps 748 mmHg 73%
    04:00 -2°C° 0 mm 5 mps 749 mmHg 73%
    05:00 -2°C° 0 mm 4 mps 749 mmHg 74%
    06:00 -2°C° 0 mm 4 mps 749 mmHg 75%
    07:00 -2°C° 0 mm 4 mps 750 mmHg 76%
    08:00 -2°C° 0 mm 4 mps 750 mmHg 76%
    09:00 -2°C° 0 mm 4 mps 750 mmHg 73%
    10:00 -1°C° 0 mm 5 mps 751 mmHg 70%
    11:00 -1°C° 0 mm 5 mps 751 mmHg 67%
    12:00 0°C° 0 mm 5 mps 751 mmHg 67%
    13:00 0°C° 0 mm 5 mps 751 mmHg 66%
    14:00 0°C° 0 mm 5 mps 751 mmHg 66%
    15:00 0°C° 0 mm 4 mps 752 mmHg 67%
    16:00 -1°C° 0 mm 4 mps 752 mmHg 69%
    17:00 -1°C° 0 mm 4 mps 752 mmHg 71%
    18:00 -1°C° 0 mm 4 mps 753 mmHg 71%
    19:00 0°C° 0 mm 3 mps 753 mmHg 72%
    20:00 -1°C° 0 mm 3 mps 753 mmHg 73%
    21:00 -1°C° 0 mm 3 mps 753 mmHg 74%
    22:00 -1°C° 0 mm 3 mps 753 mmHg 74%
    23:00 -1°C° 0 mm 3 mps 753 mmHg 75%

    Day after tomorrow, 20 December, Wednesday

    Time Temperature Precipitation Wind Pressure Humidity
    00:00 -2°C° 0 mm 3 mps 754 mmHg 77%
    01:00 -2°C° 0 mm 2 mps 754 mmHg 80%
    02:00 -2°C° 0 mm 2 mps 754 mmHg 82%
    03:00 -2°C° 0 mm 2 mps 754 mmHg 82%
    04:00 -2°C° 0 mm 2 mps 754 mmHg 83%
    05:00 -3°C° 0 mm 2 mps 755 mmHg 84%
    06:00 -2°C° 0 mm 2 mps 755 mmHg 83%
    07:00 -2°C° 0 mm 2 mps 755 mmHg 82%
    08:00 0°C° 0 mm 1 mps 756 mmHg 82%
    09:00 -2°C° 0 mm 2 mps 756 mmHg 77%
    10:00 -1°C° 0 mm 2 mps 756 mmHg 72%
    11:00 +1°C° 0 mm 2 mps 757 mmHg 67%
    12:00 +1°C° 0 mm 2 mps 757 mmHg 66%
    13:00 +1°C° 0 mm 2 mps 756 mmHg 64%
    14:00 +2°C° 0 mm 1 mps 756 mmHg 63%
    15:00 +2°C° 0 mm 1 mps 757 mmHg 66%
    16:00 +1°C° 0 mm 1 mps 757 mmHg 70%
    17:00 0°C° 0 mm 1 mps 757 mmHg 73%
    18:00 0°C° 0 mm 1 mps 757 mmHg 74%
    19:00 0°C° 0 mm 1 mps 758 mmHg 74%
    20:00 0°C° 0 mm 1 mps 758 mmHg 75%
    21:00 0°C° 0 mm 1 mps 758 mmHg 75%
    22:00 0°C° 0 mm 1 mps 758 mmHg 75%
    23:00 0°C° 0 mm 1 mps 759 mmHg 75%

    21 December, Thursday

    Time Temperature Precipitation Wind Pressure Humidity
    00:00 0°C° 0 mm 1 mps 759 mmHg 74%
    01:00 -1°C° 0 mm 1 mps 759 mmHg 74%
    02:00 -1°C° 0 mm 1 mps 759 mmHg 74%
    03:00 -1°C° 0 mm 1 mps 759 mmHg 72%
    04:00 -1°C° 0 mm 1 mps 759 mmHg 71%
    05:00 -1°C° 0 mm 1 mps 760 mmHg 70%
    06:00 0°C° 0 mm 1 mps 760 mmHg 68%
    07:00 0°C° 0 mm 1 mps 760 mmHg 67%
    08:00 0°C° 0 mm 1 mps 760 mmHg 65%
    09:00 -2°C° 0 mm 2 mps 760 mmHg 61%
    10:00 -1°C° 0 mm 2 mps 760 mmHg 56%
    11:00 -1°C° 0 mm 2 mps 760 mmHg 51%
    12:00 +1°C° 0 mm 2 mps 760 mmHg 51%
    13:00 +1°C° 0 mm 2 mps 759 mmHg 52%
    14:00 +1°C° 0 mm 2 mps 759 mmHg 52%
    15:00 -1°C° 0 mm 2 mps 759 mmHg 56%
    16:00 -2°C° 0 mm 2 mps 758 mmHg 60%
    17:00 0°C° 0 mm 1 mps 758 mmHg 64%
    18:00 -1°C° 0 mm 1 mps 758 mmHg 65%
    19:00 -1°C° 0 mm 1 mps 758 mmHg 67%
    20:00 -1°C° 0 mm 1 mps 758 mmHg 68%
    21:00 -1°C° 0 mm 1 mps 758 mmHg 69%
    22:00 -1°C° 0 mm 1 mps 757 mmHg 70%
    23:00 -1°C° 0 mm 1 mps 757 mmHg 71%

    22 December, Friday

    Time Temperature Precipitation Wind Pressure Humidity
    00:00 -2°C° 0 mm 1 mps 756 mmHg 72%
    01:00 -2°C° 0 mm 1 mps 756 mmHg 72%
    02:00 -2°C° 0 mm 1 mps 755 mmHg 72%
    03:00 -2°C° 0 mm 1 mps 755 mmHg 72%
    04:00 -2°C° 0 mm 1 mps 754 mmHg 72%
    05:00 -2°C° 0 mm 1 mps 754 mmHg 72%
    06:00 -2°C° 0 mm 1 mps 754 mmHg 72%
    07:00 -2°C° 0 mm 1 mps 754 mmHg 71%
    08:00 -2°C° 0 mm 1 mps 753 mmHg 70%
    09:00 -3°C° 0 mm 2 mps 753 mmHg 66%
    10:00 -2°C° 0 mm 2 mps 753 mmHg 62%
    11:00 -1°C° 0 mm 3 mps 753 mmHg 58%
    12:00 -1°C° 0 mm 3 mps 752 mmHg 57%
    13:00 -1°C° 0 mm 3 mps 752 mmHg 57%
    14:00 -2°C° 0 mm 4 mps 751 mmHg 56%
    15:00 -2°C° 0 mm 4 mps 751 mmHg 60%
    16:00 -2°C° 0 mm 4 mps 751 mmHg 63%
    17:00 -3°C° 0 mm 4 mps 750 mmHg 67%
    18:00 -3°C° 0 mm 4 mps 750 mmHg 69%
    19:00 -3°C° 0 mm 4 mps 750 mmHg 72%
    20:00 -3°C° 0 mm 4 mps 750 mmHg 74%
    21:00 -3°C° 0 mm 4 mps 749 mmHg 76%
    22:00 -3°C° 0 mm 4 mps 749 mmHg 78%
    23:00 -3°C° 0 mm 4 mps 749 mmHg 81%

    23 December, Saturday

    Time Temperature Precipitation Wind Pressure Humidity
    00:00 -3°C° 0 mm 4 mps 748 mmHg 80%
    01:00 -3°C° 0 mm 4 mps 748 mmHg 80%
    02:00 -3°C° 0 mm 4 mps 748 mmHg 80%
    03:00 -4°C° 0 mm 4 mps 747 mmHg 80%
    04:00 -4°C° 0 mm 4 mps 747 mmHg 80%
    05:00 -4°C° 0 mm 4 mps 747 mmHg 81%
    06:00 -4°C° 0 mm 4 mps 747 mmHg 82%
    07:00 -4°C° 0 mm 3 mps 746 mmHg 83%
    08:00 -4°C° 0 mm 3 mps 746 mmHg 84%
    09:00 -2°C° 0 mm 3 mps 746 mmHg 79%
    10:00 -1°C° 0 mm 3 mps 746 mmHg 75%
    11:00 0°C° 0 mm 3 mps 746 mmHg 70%
    12:00 0°C° 0 mm 3 mps 746 mmHg 69%
    13:00 +1°C° 0 mm 2 mps 745 mmHg 69%
    14:00 +2°C° 0 mm 2 mps 745 mmHg 68%
    15:00 +1°C° 0 mm 2 mps 745 mmHg 72%
    16:00 +1°C° 0 mm 1 mps 745 mmHg 76%
    17:00 0°C° 0 mm 1 mps 745 mmHg 80%
    18:00 0°C° 0 mm 1 mps 745 mmHg 81%
    19:00 0°C° 0 mm 1 mps 745 mmHg 82%
    20:00 -2°C° 0 mm 2 mps 745 mmHg 83%
    21:00 -2°C° 0 mm 2 mps 745 mmHg 84%
    22:00 -2°C° 0 mm 2 mps 745 mmHg 84%
    23:00 -3°C° 0 mm 2 mps 745 mmHg 85%
    Show more